Regional Weather Roundup
Issued by NWS

Home | Current Version | Previous Version | Text Only | Print | Product List | Glossary On
Versions: 1 2 3 4 5 6 7 8 9 10 11 12 13 14 15 16 17 18 19 20 21 22 23 24 25 26 27
000
ASPQ40 PGUM 171412
RWRPQ
WEATHER ROUNDUP FOR THE MARIANAS AND MICRONESIA
NATIONAL WEATHER SERVICE TIYAN GU
1200 AM GSST FRI APR 18 2014

GUZ001>004-171500-
MARIANA ISLANDS-

CITY           SKY/WX    TMP DP  RH WIND       PRES   REMARKS
GUAM AIRPORT   PTCLDY    81  79  94 NE9       29.84F
ANDERSEN AFB   MOCLDY    79  77  94 NE13      29.84F
ROTA AIRPORT   NOT AVBL
TINIAN AP      NOT AVBL
SAIPAN AP      LGT RAIN  79  77  94 E13       29.84F

$$

PMZ161-171500-
REPUBLIC OF PALAU-

CITY           SKY/WX    TMP DP  RH WIND       PRES   REMARKS
KOROR AP       NOT AVBL
KOROR WSO      MOCLDY    82  79  89 CALM      29.81S HX  93

$$

PMZ171>174-171500-
FEDERATED STATES OF MICRONESIA-

CITY           SKY/WX    TMP DP  RH WIND       PRES   REMARKS
YAP AIRPORT    PTCLDY    79  75  89 VRB3      29.81S
CHUUK AP       CLOUDY    79  77  94 CALM      29.81F
POHNPEI AP     NOT AVBL
POHNPEI WSO    CLOUDY    77  73  88 S1        29.87F
KOSRAE AP      NOT AVBL

$$

PMZ181-171500-
REPUBLIC OF THE MARSHALL ISLANDS-

CITY           SKY/WX    TMP DP  RH WIND       PRES   REMARKS
KWAJALEIN AP   MOCLDY    82  73  74 E16       29.83F
MAJURO AP      NOT AVBL
MAJURO WSO     MOCLDY    81  77  89 E7        29.79F

$$




USA.gov is the U.S. government's official web portal to all federal, state and local government web resources and services.